Myrtle Beach, SC

6:14 PM EST on February 22, 2017 (GMT -0500)
Myrtle Beach International

Weather History for KMYR - November, 2013

Change the Weather History Date:

Friday, November 22, 2013

  Actual Average Record
Temperature  
Mean Temperature 63 °F -  
Max Temperature 69 °F 63 °F 77 °F (1997)
Min Temperature 57 °F 43 °F 24 °F (1951)
Degree Days  
Heating Degree Days 2    
Growing Degree Days 13 (Base 50)    
Moisture  
Dew Point 59 °F    
Average Humidity 89    
Maximum Humidity 100    
Minimum Humidity 73    
Precipitation  
Precipitation 0.00 in - - ()
Sea Level Pressure  
Sea Level Pressure 30.28 in    
Wind  
Wind Speed 3 mph (SSE)    
Max Wind Speed 10 mph    
Max Gust Speed -    
Visibility 8 miles    
Events Fog    
Averages and records for this station are not official NWS values.
T = Trace of Precipitation, MM = Missing Value Source: NWS Daily Summary

Daily Weather History Graph

Daily Weather History Graph

Search for Another Location

Airport or City:

Trip Planner

Search our weather history database for the weather conditions in past years. The results will help you decide how hot, cold, wet, or windy it might be!

Date:

Astronomy

Nov. 22, 2013 Rise Set
Actual Time 6:54 AM EST 5:09 PM EST
Civil Twilight 6:27 AM EST 5:36 PM EST
Nautical Twilight 5:57 AM EST 6:06 PM EST
Astronomical Twilight 5:27 AM EST 6:36 PM EST
Moon 9:36 PM EST 10:39 AM EST
Length of Visible Light 11h 08m
Length of Day
10h 14m
Waning Gibbous, 78% of the Moon is Illuminated
Nov 22
Waning Gibbous
Nov 25
Last Quarter
Dec 2
New
Dec 9
First Quarter
Dec 17
Full

Hourly Weather History & Observations

Time (EST) Temp. Dew Point Humidity Pressure Visibility Wind Dir Wind Speed Gust Speed Precip Events Conditions
12:15 AM 59.0 °F 57.2 °F 94% 30.37 in 10.0 mi Calm Calm - N/A   Overcast
12:35 AM 60.8 °F 57.2 °F 88% 30.35 in 10.0 mi ENE 6.9 mph - N/A   Overcast
12:55 AM 60.8 °F 59.0 °F 94% 30.35 in 10.0 mi ENE 10.4 mph - N/A   Overcast
1:15 AM 60.8 °F 57.2 °F 88% 30.34 in 10.0 mi East 9.2 mph - N/A   Overcast
1:35 AM 60.8 °F 57.2 °F 88% 30.34 in 10.0 mi ENE 6.9 mph - N/A   Overcast
1:55 AM 60.8 °F 57.2 °F 88% 30.35 in 10.0 mi Calm Calm - N/A   Overcast
2:15 AM 60.8 °F 57.2 °F 88% 30.35 in 10.0 mi Calm Calm - N/A   Overcast
2:35 AM 60.8 °F 57.2 °F 88% 30.35 in 10.0 mi Calm Calm - N/A   Overcast
2:55 AM 60.8 °F 57.2 °F 88% 30.34 in 10.0 mi Calm Calm - N/A   Overcast
3:15 AM 60.8 °F 57.2 °F 88% 30.33 in 10.0 mi Calm Calm - N/A   Overcast
3:35 AM 57.2 °F 55.4 °F 94% 30.33 in 9.0 mi Calm Calm - N/A   Overcast
3:55 AM 57.2 °F 57.2 °F 100% 30.33 in 8.0 mi Calm Calm - N/A   Overcast
4:15 AM 59.0 °F 57.2 °F 94% 30.33 in 8.0 mi Calm Calm - N/A   Overcast
4:35 AM 59.0 °F 57.2 °F 94% 30.33 in 4.0 mi Calm Calm - N/A   Overcast
4:55 AM 59.0 °F 57.2 °F 94% 30.33 in 0.8 mi Calm Calm - N/A   Overcast
5:15 AM 59.0 °F 57.2 °F 94% 30.33 in 0.2 mi Calm Calm - N/A   Overcast
5:35 AM 59.0 °F 57.2 °F 94% 30.33 in 0.5 mi Calm Calm - N/A   Overcast
5:50 AM 57.2 °F 57.2 °F 100% 30.31 in 0.5 mi Calm Calm - N/A Fog Fog
5:55 AM 57.2 °F 57.2 °F 100% 30.32 in 0.5 mi Calm Calm - N/A   Overcast
6:45 AM 57.2 °F 55.4 °F 94% 30.32 in 0.5 mi Calm Calm - N/A Fog Fog
7:50 AM 59.0 °F 57.2 °F 94% 30.32 in 1.0 mi Calm Calm - N/A   Overcast
8:45 AM 60.8 °F 59.0 °F 94% 30.32 in 2.0 mi Calm Calm - N/A   Overcast
9:24 AM 62.6 °F 60.8 °F 94% 30.32 in 8.0 mi Calm Calm - N/A   Mostly Cloudy
9:45 AM 64.4 °F 60.8 °F 88% 30.32 in 10.0 mi Calm Calm - N/A   Mostly Cloudy
10:45 AM 66.2 °F 60.8 °F 83% 30.31 in 10.0 mi Calm Calm - N/A   Mostly Cloudy
11:45 AM 68.0 °F 60.8 °F 78% 30.28 in 10.0 mi South 9.2 mph - N/A   Mostly Cloudy
12:45 PM 69.8 °F 60.8 °F 73% 30.25 in 10.0 mi SE 5.8 mph - N/A   Mostly Cloudy
1:50 PM 69.8 °F 60.8 °F 73% 30.22 in 10.0 mi South 6.9 mph - N/A   Mostly Cloudy
2:45 PM 68.0 °F 60.8 °F 78% 30.22 in 10.0 mi South 9.2 mph - N/A   Mostly Cloudy
3:45 PM 64.4 °F 59.0 °F 83% 30.21 in 10.0 mi SSE 8.1 mph - N/A   Overcast
4:45 PM 64.4 °F 60.8 °F 88% 30.20 in 10.0 mi SSE 4.6 mph - N/A   Mostly Cloudy
5:50 PM 62.6 °F 60.8 °F 94% 30.19 in 7.0 mi SSE 6.9 mph - N/A   Mostly Cloudy
6:45 PM 62.6 °F 60.8 °F 94% 30.19 in 7.0 mi South 5.8 mph - N/A   Mostly Cloudy
7:45 PM 62.6 °F 60.8 °F 94% 30.18 in 10.0 mi SSW 6.9 mph - N/A   Mostly Cloudy
8:45 PM 64.4 °F 60.8 °F 88% 30.17 in 10.0 mi South 6.9 mph - N/A   Mostly Cloudy
9:45 PM 64.4 °F 60.8 °F 88% 30.17 in 10.0 mi SSW 9.2 mph - N/A   Mostly Cloudy
11:15 PM 66.2 °F 60.8 °F 83% 30.17 in 10.0 mi SW 8.1 mph - N/A   Overcast
11:35 PM 66.2 °F 60.8 °F 83% 30.16 in 10.0 mi SW 8.1 mph - N/A   Mostly Cloudy
11:55 PM 66.2 °F 60.8 °F 83% 30.15 in 10.0 mi SW 6.9 mph - N/A   Scattered Clouds